GW1491 Weather Reports


Display with metric or nautical units.
time (UTC)temp
F
wind
direction
speed
MPH
gust
MPH
rain 1hr
in
rain 24hr
in
rain mn
in
humidity
%
barometer
mb
20260508082735 43 259 0.0 1.0 0.00 0.00 0.00 80 1014.9
20260508082150 42 241 0.0 1.0 0.00 0.00 0.00 80 1014.9
20260508081537 43 221 0.0 1.0 0.00 0.00 0.00 80 1015.2
20260508080328 42 220 0.0 1.0 0.00 0.00 0.00 80 1014.9
20260508075731 42 220 0.0 1.0 0.00 0.00 0.00 80 1015.2
20260508075120 42 276 0.0 1.0 0.00 0.00 0.00 81 1015.2
20260508074529 42 277 0.0 1.0 0.00 0.00 0.00 81 1015.2
20260508073327 42 281 2.0 2.0 0.00 0.00 0.00 82 1014.9
20260508072733 42 273 1.0 1.0 0.00 0.00 0.00 82 1015.2
20260508072115 41 253 0.0 1.0 0.00 0.00 0.00 82 1014.9
20260508071537 41 270 0.0 0.0 0.00 0.00 0.00 81 1014.9
20260508070950 42 275 0.0 1.0 0.00 0.00 0.00 81 1014.9
20260508070338 42 273 1.0 2.0 0.00 0.00 0.00 80 1014.9
20260508065738 42 263 0.0 1.0 0.00 0.00 0.00 80 1014.9
20260508065133 42 266 0.0 1.0 0.00 0.00 0.00 78 1015.2
20260508064520 42 271 0.0 1.0 0.00 0.00 0.00 78 1015.2
20260508063925 42 271 0.0 1.0 0.00 0.00 0.00 77 1015.2
20260508063318 43 272 0.0 1.0 0.00 0.00 0.00 77 1015.2
20260508062742 43 271 0.0 1.0 0.00 0.00 0.00 76 1014.9
20260508062146 43 271 0.0 1.0 0.00 0.00 0.00 76 1014.9
20260508061530 43 273 0.0 1.0 0.00 0.00 0.00 76 1014.9
20260508060909 43 269 0.0 1.0 0.00 0.00 0.00 75 1014.9
20260508060341 43 274 0.0 1.0 0.00 0.00 0.00 74 1015.2
20260508055751 43 274 0.0 0.0 0.00 0.00 0.00 74 1015.2
20260508055141 44 276 0.0 1.0 0.00 0.00 0.00 73 1015.2
20260508054544 44 276 0.0 1.0 0.00 0.00 0.00 73 1015.5
20260508052738 44 276 0.0 1.0 0.00 0.00 0.00 71 1015.5
20260508052132 45 278 0.0 2.0 0.00 0.00 0.00 70 1015.5
20260508051526 45 278 0.0 1.0 0.00 0.00 0.00 70 1015.5
20260508050945 45 278 0.0 1.0 0.00 0.00 0.00 70 1015.5
20260508050309 45 278 0.0 1.0 0.00 0.00 0.00 70 1015.5
20260508045724 45 278 0.0 0.0 0.00 0.00 0.00 69 1015.5
20260508045128 45 278 0.0 1.0 0.00 0.00 0.00 69 1015.5
20260508044542 45 278 0.0 0.0 0.00 0.00 0.00 69 1015.5
20260508043936 45 278 1.0 1.0 0.00 0.00 0.00 70 1015.2
20260508043347 45 278 0.0 1.0 0.00 0.00 0.00 69 1015.2
20260508042723 46 281 0.0 1.0 0.00 0.00 0.00 68 1015.5
20260508042141 46 281 0.0 1.0 0.00 0.00 0.00 67 1015.2
20260508041532 46 282 1.0 2.0 0.00 0.00 0.00 67 1015.2
20260508040318 46 278 0.0 1.0 0.00 0.00 0.00 66 1015.2
20260508035120 46 278 0.0 0.0 0.00 0.00 0.00 66 1015.2
20260508034526 46 278 0.0 0.0 0.00 0.00 0.00 65 1015.2
20260508033916 47 278 0.0 1.0 0.00 0.00 0.00 64 1015.5
20260508033321 48 278 0.0 1.0 0.00 0.00 0.00 63 1014.9
20260508032734 48 276 1.0 2.0 0.00 0.00 0.00 62 1015.2
20260508032147 48 280 2.0 2.0 0.00 0.00 0.00 62 1015.2
20260508031526 47 282 2.0 2.0 0.00 0.00 0.00 65 1015.2
20260508030931 46 282 1.0 1.0 0.00 0.00 0.00 67 1015.2
20260508030311 46 282 1.0 1.0 0.00 0.00 0.00 68 1015.2
20260508025719 46 282 0.0 1.0 0.00 0.00 0.00 67 1014.9
20260508025114 46 282 0.0 1.0 0.00 0.00 0.00 67 1015.2
20260508024525 46 282 0.0 1.0 0.00 0.00 0.00 67 1015.2
20260508023946 46 282 1.0 1.0 0.00 0.00 0.00 66 1015.2
20260508023341 46 282 0.0 0.0 0.00 0.00 0.00 65 1015.2
20260508022723 47 282 0.0 1.0 0.00 0.00 0.00 65 1015.2
20260508021515 48 282 0.0 1.0 0.00 0.00 0.00 62 1015.2
20260508020945 49 282 1.0 2.0 0.00 0.00 0.00 61 1015.2
20260508020349 48 282 1.0 1.0 0.00 0.00 0.00 62 1015.2
20260508015738 48 282 0.0 1.0 0.00 0.00 0.00 61 1015.2
20260508015145 49 283 0.0 1.0 0.00 0.00 0.00 60 1014.9
20260508014517 50 276 1.0 2.0 0.00 0.00 0.00 59 1014.9
20260508012725 50 287 1.0 2.0 0.00 0.00 0.00 58 1014.9
20260508011528 50 311 0.0 1.0 0.00 0.00 0.00 56 1014.5
20260508010935 51 303 0.0 1.0 0.00 0.00 0.00 56 1014.5
20260508010349 51 295 0.0 1.0 0.00 0.00 0.00 57 1014.5
20260508005736 51 288 1.0 1.0 0.00 0.00 0.00 57 1014.2
20260508003908 51 285 1.0 1.0 0.00 0.00 0.00 56 1014.5
20260508003340 52 285 0.0 2.0 0.00 0.00 0.00 56 1014.2
20260508002734 53 285 1.0 2.0 0.00 0.00 0.00 54 1014.2
20260508002110 53 295 1.0 2.0 0.00 0.00 0.00 54 1014.2
20260508001532 54 297 1.0 2.0 0.00 0.00 0.00 54 1014.2
20260508000949 54 315 2.0 3.0 0.00 0.00 0.00 52 1014.2
20260508000335 54 294 2.0 3.0 0.00 0.00 0.00 52 1013.8
20260507235747 55 290 2.0 3.0 0.00 0.00 0.00 51 1014.2
20260507235119 55 281 4.0 6.0 0.00 0.00 0.00 51 1013.8
20260507234551 56 288 3.0 4.0 0.00 0.00 0.00 51 1013.8
20260507233938 56 289 3.0 7.0 0.00 0.00 0.00 51 1013.8
20260507233347 57 356 0.0 7.0 0.00 0.00 0.00 50 1013.8
20260507231535 57 326 4.0 9.0 0.00 0.00 0.00 49 1013.5
20260507225744 58 304 2.0 7.0 0.00 0.00 0.00 51 1013.8
20260507225120 58 286 10.0 12.0 0.00 0.00 0.00 49 1013.8
20260507224527 57 343 3.0 6.0 0.00 0.00 0.00 50 1013.5
20260507223918 57 304 2.0 16.0 0.00 0.00 0.00 50 1013.8
20260507223338 58 254 3.0 7.0 0.00 0.00 0.00 50 1013.5
20260507222719 59 339 5.0 11.0 0.00 0.00 0.00 46 1013.2
20260507221516 59 289 6.0 10.0 0.00 0.00 0.00 46 1013.5
20260507220312 58 331 2.0 10.0 0.00 0.00 0.00 47 1013.5
20260507215738 57 285 2.0 7.0 0.00 0.00 0.00 47 1013.2
20260507215144 58 345 6.0 11.0 0.00 0.00 0.00 46 1012.8
20260507213944 59 315 9.0 14.0 0.00 0.00 0.00 43 1012.8
20260507212736 60 296 6.0 10.0 0.00 0.00 0.00 42 1012.5
20260507211532 60 308 6.0 15.0 0.00 0.00 0.00 41 1012.5
20260507210928 60 329 4.0 9.0 0.00 0.00 0.00 43 1012.5
20260507210344 60 328 3.0 11.0 0.00 0.00 0.00 43 1012.5
20260507204547 61 335 6.0 8.0 0.00 0.00 0.00 42 1012.5
20260507202737 60 328 2.0 11.0 0.00 0.00 0.00 45 1012.5
20260507202152 59 284 8.0 15.0 0.00 0.00 0.00 45 1012.5
20260507201538 60 346 14.0 17.0 0.00 0.00 0.00 45 1012.5
20260507200938 60 290 9.0 15.0 0.00 0.00 0.00 44 1012.8
20260507195752 61 276 7.0 9.0 0.00 0.00 0.00 45 1012.5
20260507195151 60 270 8.0 11.0 0.00 0.00 0.00 43 1012.8
20260507194514 61 253 7.0 14.0 0.00 0.00 0.00 41 1012.5
20260507193951 61 281 8.0 10.0 0.00 0.00 0.00 41 1012.8
20260507192732 60 349 2.0 7.0 0.00 0.00 0.00 45 1012.8
20260507192146 59 337 1.0 10.0 0.00 0.00 0.00 48 1012.8
20260507191535 59 339 6.0 17.0 0.00 0.00 0.00 46 1012.8
20260507190936 59 314 3.0 9.0 0.00 0.00 0.00 47 1012.8
20260507185724 62 262 7.0 9.0 0.00 0.00 0.00 47 1013.2
20260507185150 59 322 3.0 8.0 0.00 0.00 0.00 50 1013.5
20260507184548 60 313 1.0 7.0 0.00 0.00 0.00 47 1013.2
20260507183951 61 292 4.0 14.0 0.00 0.00 0.00 51 1013.2
20260507183308 60 321 9.0 14.0 0.00 0.00 0.00 47 1012.8
20260507182714 59 354 2.0 10.0 0.00 0.00 0.00 47 1013.2
20260507182150 59 294 5.0 8.0 0.00 0.00 0.00 46 1013.2
20260507181510 59 276 3.0 9.0 0.00 0.00 0.00 49 1013.2
20260507180927 58 237 5.0 12.0 0.00 0.00 0.00 47 1012.8
20260507180324 59 321 2.0 11.0 0.00 0.00 0.00 50 1012.8
20260507174520 61 11 1.0 2.0 0.00 0.00 0.00 50 1013.2
20260507173945 58 303 5.0 9.0 0.00 0.00 0.00 46 1013.5
20260507172732 59 339 4.0 12.0 0.00 0.00 0.00 48 1013.5
20260507172129 60 291 3.0 9.0 0.00 0.00 0.00 52 1013.5
20260507170911 59 215 3.0 8.0 0.00 0.00 0.00 47 1013.8
20260507170321 58 179 1.0 6.0 0.00 0.00 0.00 49 1013.5
20260507165750 58 307 4.0 7.0 0.00 0.00 0.00 47 1013.5
20260507165135 58 322 2.0 8.0 0.00 0.00 0.00 47 1013.8
20260507163923 58 271 3.0 8.0 0.00 0.00 0.00 53 1013.8
20260507162722 59 257 3.0 7.0 0.00 0.00 0.00 49 1013.8
20260507162152 57 282 3.0 7.0 0.00 0.00 0.00 48 1013.8
20260507161555 58 265 6.0 17.0 0.00 0.00 0.00 48 1013.8
20260507160923 57 333 4.0 6.0 0.00 0.00 0.00 49 1014.2
20260507160346 58 254 8.0 14.0 0.00 0.00 0.00 50 1014.2
20260507155731 58 314 2.0 4.0 0.00 0.00 0.00 49 1013.8
20260507155123 57 239 2.0 7.0 0.00 0.00 0.00 47 1014.2
20260507154519 56 322 8.0 9.0 0.00 0.00 0.00 49 1014.2
20260507153911 57 332 4.0 8.0 0.00 0.00 0.00 49 1014.2
20260507153315 56 228 2.0 10.0 0.00 0.00 0.00 51 1014.2
20260507152750 55 276 3.0 9.0 0.00 0.00 0.00 50 1014.2
20260507151534 56 316 6.0 8.0 0.00 0.00 0.00 52 1014.2
20260507150347 55 235 3.0 10.0 0.00 0.00 0.00 52 1014.5
20260507145715 56 270 8.0 9.0 0.00 0.00 0.00 51 1014.5
20260507145111 56 333 3.0 9.0 0.00 0.00 0.00 53 1014.2
20260507144515 56 303 6.0 9.0 0.00 0.00 0.00 52 1014.5
20260507143939 55 279 2.0 7.0 0.00 0.00 0.00 55 1014.5
20260507143320 55 175 1.0 6.0 0.00 0.00 0.00 55 1014.2
20260507142123 54 268 6.0 9.0 0.00 0.00 0.00 58 1014.5
20260507141517 55 305 2.0 3.0 0.00 0.00 0.00 61 1014.5
20260507140926 54 330 2.0 9.0 0.00 0.00 0.00 60 1014.9
20260507140342 54 246 5.0 6.0 0.00 0.00 0.00 62 1014.9
20260507135143 54 344 2.0 4.0 0.00 0.00 0.00 64 1014.9
20260507134519 53 305 5.0 7.0 0.00 0.00 0.00 63 1015.2
20260507133319 52 273 2.0 4.0 0.00 0.00 0.00 66 1014.9
20260507132742 52 343 3.0 6.0 0.00 0.00 0.00 69 1014.9
20260507132122 52 290 3.0 7.0 0.00 0.00 0.00 71 1015.2
20260507130911 50 276 2.0 2.0 0.00 0.00 0.00 77 1015.2
20260507130311 50 346 2.0 7.0 0.00 0.00 0.00 78 1015.2
20260507124550 49 303 2.0 7.0 0.00 0.00 0.00 81 1014.9
20260507123942 48 297 1.0 4.0 0.00 0.00 0.00 82 1015.2
20260507123343 48 284 4.0 6.0 0.00 0.00 0.00 82 1014.9
20260507122748 47 280 2.0 3.0 0.00 0.00 0.00 84 1014.9
20260507122127 47 272 1.0 4.0 0.00 0.00 0.00 85 1015.2
20260507120340 44 304 4.0 6.0 0.00 0.00 0.00 93 1015.2
20260507115712 44 282 2.0 4.0 0.00 0.00 0.00 96 1014.9
20260507115146 44 279 1.0 4.0 0.00 0.00 0.00 97 1014.9
20260507114527 43 296 1.0 1.0 0.00 0.00 0.00 98 1014.9
20260507113916 43 270 2.0 2.0 0.00 0.00 0.00 98 1014.9
20260507113326 43 306 1.0 1.0 0.00 0.00 0.00 98 1014.9
20260507112752 42 315 0.0 0.0 0.00 0.00 0.00 98 1014.9
20260507111513 42 315 0.0 0.0 0.00 0.00 0.00 98 1014.9
20260507110940 41 315 0.0 0.0 0.00 0.00 0.00 98 1014.9
20260507110320 40 315 0.0 0.0 0.00 0.00 0.00 98 1014.9
20260507105717 40 316 0.0 0.0 0.00 0.00 0.00 98 1014.9
20260507105143 40 316 0.0 0.0 0.00 0.00 0.00 98 1014.5
20260507104546 40 317 0.0 0.0 0.00 0.00 0.00 98 1014.5
20260507103320 40 317 0.0 0.0 0.00 0.00 0.00 98 1014.2
20260507102729 39 317 0.0 0.0 0.00 0.00 0.00 97 1014.5
20260507101525 39 317 0.0 0.0 0.00 0.00 0.00 97 1014.2
20260507100912 40 317 0.0 0.0 0.00 0.00 0.00 96 1014.5
20260507100332 40 317 0.0 0.0 0.00 0.00 0.00 96 1013.8
20260507095740 40 317 0.0 0.0 0.00 0.00 0.00 95 1014.2
20260507095110 40 317 0.0 0.0 0.00 0.00 0.00 95 1014.2
20260507093930 41 317 0.0 0.0 0.00 0.00 0.00 93 1014.2
20260507093344 41 317 1.0 1.0 0.00 0.00 0.00 93 1014.2
20260507092744 41 317 1.0 1.0 0.00 0.00 0.00 92 1014.2
20260507092130 41 317 1.0 1.0 0.00 0.00 0.00 92 1014.2
20260507091510 41 317 1.0 1.0 0.00 0.00 0.00 92 1014.2
20260507090939 41 317 0.0 1.0 0.00 0.00 0.00 92 1014.5
20260507090318 42 317 1.0 1.0 0.00 0.00 0.00 92 1014.2
20260507085715 41 317 0.0 1.0 0.00 0.00 0.00 91 1014.2
20260507085109 42 317 0.0 1.0 0.00 0.00 0.00 91 1014.2
20260507084541 42 317 0.0 1.0 0.00 0.00 0.00 91 1014.2
20260507083925 42 317 1.0 1.0 0.00 0.00 0.00 90 1014.2
20260507083327 42 317 1.0 1.0 0.00 0.00 0.00 90 1014.5